map of FAY home
FAY - Airport
Location
City:  Fayetteville, North Carolina, United States
Name:Fayetteville Regional/Grannis Field
ICAO:KFAY
IATA:FAY
FAA LID:FAY

Details
Type:Airport (Part 139 Class I)
Use:Public/Civil
Latitude:3459'28"N (34.991222)
Longitude:7852'49"W (-78.880277)
Datum:WGS 1984
Elevation:189 ft (58 m)
Variation:9.02W (WMM2015 magnetic declination)
-0.05 annual change
Runways:2
Longest:7709 × 150 ft (2350 × 45.5 m), paved

Time
Time Zone:UTC-5 (DST-4)
Local Time:

Weather
METAR:KFAY 161353Z 22004KT 3SM BR CLR 02/01 A3022 RMK AO2 SLP231 T00170006
TAF:KFAY 161134Z 1612/1712 VRB03KT 5SM BR SKC
TEMPO 1612/1613 2SM BR
FM161400 VRB04KT P6SM FEW250

Related Locations
Nearby:
Farthest:YAUG: 11644 mi / 18739 km
Augusta [Augusta Airport], WA, AU

Find:

   beyond  
but within

Other Information
Maps:
Delays:
NOTAMs:
Links:
Sources:

  
  • flag of United States
  • flag of North Carolina
  

Airport Diagram

Airport diagram for FAY

Airport diagram PDF from FAA

Sectional Chart

Flight Planning
at skyvector.com

Satellite Image

Google Maps Satellite view

 

Copyright © 2004-2019 Karl L. Swartz. All rights reserved.
The Great Circle Mapper name and logo are trademarks of the Great Circle Mapper.
All other trademarks mentioned herein belong to their respective owners.
Please see credits for attibutions and further copyright information.

  Follow gcmap on Facebook Follow gcmap on Twitter Follow gcmap on Google+ GCmap on LinkedIn

hCard Microformat

Geo Microformat